アトラス彗星

C/2017 M4 ( ATLAS )

English version
Home page
Updated on February 13, 2018

---------------------------------------------------------------------

・ プロフィール

発見日 2017年6月21日
発見光度 18.3等
発見者 Asteroid Terrestrial-impact Last Alert System (ATLAS) Team

・ 写真集

・ 軌道要素

Epoch 2019 Feb. 6.0 TT = JDT 2458520.5
T 2019 Jan. 18.18397 TT                                 MPCW
q   3.2516372            (2000.0)            P               Q
z  -0.0007197      Peri.  167.62386     -0.34655617     -0.32820572
 +/-0.0000020      Node    65.86760     -0.92162909     +0.29354419
e   1.0023402      Incl.  105.65768     -0.17463860     -0.89783785
From 829 observations 2017 June 16-2018 Jan. 19, mean residual 0".4.

・ 星図

・ 光度変化

        m1 = 6.0 + 5 logΔ + 10.0 log r

---------------------------------------------------------------------

軌道要素はM.P.E.C. 2018-B155に掲載されたものです。
星図はステラナビゲータ Ver.10 (アストロアーツ) で作成したものです。
光度グラフはComet for Windowsで作成したものです。

---------------------------------------------------------------------

Copyright(C) Seiichi Yoshida (comet@aerith.net). All rights reserved.